Ben Gurion International Airport, Israel

9:59 PM IST on January 19, 2018 (GMT +0200)
Ben Gurion International Airport

Weather History for 40180 - October, 2013

Change the Weather History Date:

Tuesday, October 8, 2013

  Actual Average Record
Temperature  
Mean Temperature 72 °F -  
Max Temperature 87 °F 79 °F - ()
Min Temperature 57 °F 62 °F - ()
Cooling Degree Days 7    
Growing Degree Days 22 (Base 50)    
Moisture  
Dew Point 36 °F    
Average Humidity 31    
Maximum Humidity 55    
Minimum Humidity 5    
Precipitation  
Precipitation 0.00 in - - ()
Sea Level Pressure  
Sea Level Pressure 30.07 in    
Wind  
Wind Speed 6 mph ()    
Max Wind Speed 17 mph    
Max Gust Speed -    
Visibility 6.0 miles    
Events      
T = Trace of Precipitation, MM = Missing Value Source: Averaged Metar Reports

Daily Weather History Graph

Daily Weather History Graph

Search for Another Location

Airport or City:

Trip Planner

Search our weather history database for the weather conditions in past years. The results will help you decide how hot, cold, wet, or windy it might be!

Date:

Astronomy

Oct. 08, 2013 Rise Set
Actual Time 6:38 AM IDT 6:16 PM IDT
Civil Twilight 6:14 AM IDT 6:40 PM IDT
Nautical Twilight 5:46 AM IDT 7:09 PM IDT
Astronomical Twilight 5:17 AM IDT 7:37 PM IDT
Moon 9:58 AM IDT (10/8) 8:47 PM IDT (10/8)
Length of Visible Light 12h 26m
Length of Day
11h 37m
Waxing Crescent, 13% of the Moon is Illuminated
Oct 8
Waxing Crescent
Oct 12
First Quarter
Oct 19
Full
Oct 27
Last Quarter
Nov 3
New

Hourly Weather History & Observations

Time (IDT) Temp. Dew Point Humidity Pressure Visibility Wind Dir Wind Speed Gust Speed Precip Events Conditions
12:20 AM 62.6 °F 42.8 °F 48% 30.12 in - Variable 2.3 mph - N/A   Clear
12:50 AM 60.8 °F 42.8 °F 52% 30.12 in - Variable 1.2 mph - N/A   Clear
1:20 AM 59.0 °F 42.8 °F 55% 30.09 in - East 5.8 mph - N/A   Clear
1:50 AM 60.8 °F 42.8 °F 52% 30.09 in - Variable 3.5 mph - N/A   Clear
2:20 AM 60.8 °F 42.8 °F 52% 30.09 in - Variable 3.5 mph - N/A   Clear
2:50 AM 59.0 °F 42.8 °F 55% 30.09 in - Variable 3.5 mph - N/A   Clear
3:00 AM 59 °F 43 °F 45% 30.12 in 6 mi 3.5 mph - -  
3:20 AM 60.8 °F 42.8 °F 52% 30.09 in - Variable 2.3 mph - N/A   Clear
3:50 AM 59.0 °F 42.8 °F 55% 30.09 in - Variable 3.5 mph - N/A   Clear
4:20 AM 59.0 °F 42.8 °F 55% 30.09 in - Variable 2.3 mph - N/A   Clear
4:50 AM 59.0 °F 42.8 °F 55% 30.09 in - Variable 2.3 mph - N/A   Clear
5:20 AM 59.0 °F 42.8 °F 55% 30.09 in - NE 4.6 mph - N/A   Clear
5:50 AM 59.0 °F 41.0 °F 51% 30.09 in - Variable 3.5 mph - N/A   Clear
6:20 AM 60.8 °F 41.0 °F 48% 30.09 in - Variable 3.5 mph - N/A   Clear
6:50 AM 62.6 °F 39.2 °F 42% 30.09 in - NNE 6.9 mph - N/A   Clear
7:20 AM 62.6 °F 37.4 °F 39% 30.09 in - NNE 8.1 mph - N/A   Clear
7:50 AM 66.2 °F 35.6 °F 32% 30.09 in - NNE 6.9 mph - N/A   Clear
8:20 AM 68.0 °F 33.8 °F 28% 30.12 in - NNE 6.9 mph - N/A   Clear
8:50 AM 69.8 °F 32.0 °F 25% 30.12 in - NNE 5.8 mph - N/A   Clear
9:00 AM 69 °F 33 °F 15% 30.13 in 6 mi NNE 5.8 mph - -  
9:20 AM 73.4 °F 32.0 °F 22% 30.12 in - NNE 6.9 mph - N/A   Clear
9:50 AM 77.0 °F 24.8 °F 14% 30.12 in - NNE 6.9 mph - N/A   Clear
10:20 AM 78.8 °F 24.8 °F 14% 30.12 in - East 13.8 mph - N/A   Clear
10:50 AM 78.8 °F 24.8 °F 14% 30.12 in - ESE 15.0 mph - N/A   Clear
11:20 AM 80.6 °F 24.8 °F 13% 30.12 in - ESE 10.4 mph - N/A   Clear
11:50 AM 80.6 °F 24.8 °F 13% 30.09 in - ESE 9.2 mph - N/A   Clear
12:20 PM 82.4 °F 24.8 °F 12% 30.09 in - East 9.2 mph - N/A   Clear
12:50 PM 82.4 °F 24.8 °F 12% 30.06 in - East 10.4 mph - N/A   Clear
1:20 PM 82.4 °F 24.8 °F 12% 30.06 in - ESE 10.4 mph - N/A   Clear
1:50 PM 84.2 °F 24.8 °F 11% 30.04 in - East 8.1 mph - N/A   Clear
2:20 PM 84.2 °F 23.0 °F 11% 30.04 in - ENE 8.1 mph - N/A   Clear
2:50 PM 84.2 °F 24.8 °F 11% 30.04 in - East 8.1 mph - N/A   Clear
3:00 PM 84 °F 25 °F 5% 30.04 in 6 mi ENE 8.1 mph - -  
3:20 PM 86.0 °F 24.8 °F 11% 30.01 in - East 9.2 mph - N/A   Clear
3:50 PM 84.2 °F 24.8 °F 11% 30.01 in - NE 8.1 mph - N/A   Clear
4:20 PM 84.2 °F 24.8 °F 11% 30.01 in - NE 10.4 mph - N/A   Clear
4:50 PM 84.2 °F 24.8 °F 11% 30.01 in - NE 11.5 mph - N/A   Clear
5:20 PM 78.8 °F 48.2 °F 34% 30.01 in - North 17.3 mph - N/A   Clear
5:50 PM 77.0 °F 48.2 °F 36% 30.01 in - North 16.1 mph - N/A   Clear
6:20 PM 77.0 °F 48.2 °F 36% 30.04 in - North 16.1 mph - N/A   Clear
6:50 PM 75.2 °F 44.6 °F 34% 30.04 in - North 15.0 mph - N/A   Clear
7:20 PM 75.2 °F 44.6 °F 34% 30.04 in - North 13.8 mph - N/A   Clear
7:50 PM 73.4 °F 42.8 °F 33% 30.04 in - North 11.5 mph - N/A   Clear
8:20 PM 73.4 °F 42.8 °F 33% 30.04 in - North 10.4 mph - N/A   Clear
8:50 PM 73.4 °F 42.8 °F 33% 30.04 in - North 9.2 mph - N/A   Clear
9:00 PM 73 °F 43 °F 23% 30.06 in 6 mi North 9.2 mph - -  
9:20 PM 71.6 °F 42.8 °F 35% 30.04 in - North 6.9 mph - N/A   Clear
9:50 PM 71.6 °F 41.0 °F 33% 30.04 in - North 9.2 mph - N/A   Clear
10:20 PM 71.6 °F 41.0 °F 33% 30.04 in - North 10.4 mph - N/A   Clear
10:50 PM 71.6 °F 39.2 °F 31% 30.04 in - North 10.4 mph - N/A   Clear
11:20 PM 71.6 °F 35.6 °F 27% 30.04 in - North 8.1 mph - N/A   Clear
11:50 PM 73.4 °F 32.0 °F 22% 30.04 in - North 8.1 mph - N/A   Clear